Time,TemperatureF,DewpointF,PressureIn,WindDirection,WindDirectionDegrees,WindSpeedMPH,WindSpeedGustMPH,Humidity,HourlyPrecipIn,Conditions,Clouds,dailyrainin,SoftwareType,DateUTC
2013-03-11 00:03:00,16.0,12.0,-100.00,North,0,12.0,16.0,85,0.00,,,0.00,,2013-03-11 05:03:00,
2013-03-11 00:12:00,17.0,12.0,-100.00,North,0,13.0,17.0,85,0.00,,,0.00,,2013-03-11 05:12:00,
2013-03-11 00:22:00,16.0,12.0,-100.00,North,5,11.0,17.0,84,0.00,,,0.00,,2013-03-11 05:22:00,
2013-03-11 00:32:00,16.0,12.0,-100.00,North,5,12.0,15.0,84,0.00,,,0.00,,2013-03-11 05:32:00,
2013-03-11 00:42:00,16.0,12.0,-100.00,North,10,10.0,14.0,83,0.00,,,0.00,,2013-03-11 05:42:00,
2013-03-11 00:52:00,17.0,12.0,-100.00,North,10,12.0,16.0,82,0.00,,,0.00,,2013-03-11 05:52:00,
2013-03-11 01:02:00,17.0,12.0,-100.00,NNE,15,12.0,17.0,82,0.00,,,0.00,,2013-03-11 06:02:00,
2013-03-11 01:12:00,17.0,12.0,-100.00,NNE,15,11.0,16.0,81,0.00,,,0.00,,2013-03-11 06:12:00,
2013-03-11 01:22:00,17.0,12.0,-100.00,North,5,11.0,14.0,81,0.00,,,0.00,,2013-03-11 06:22:00,
2013-03-11 01:32:00,17.0,12.0,-100.00,NNE,15,10.0,14.0,80,0.00,,,0.00,,2013-03-11 06:32:00,
2013-03-11 01:42:00,18.0,12.0,-100.00,NNE,20,12.0,16.0,80,0.00,,,0.00,,2013-03-11 06:42:00,
2013-03-11 01:52:00,18.0,12.0,-100.00,NNE,20,11.0,16.0,79,0.00,,,0.00,,2013-03-11 06:52:00,
2013-03-11 02:02:00,18.0,12.0,-100.00,NNE,15,13.0,16.0,79,0.00,,,0.00,,2013-03-11 07:02:00,
2013-03-11 02:12:00,18.0,12.0,-100.00,NNE,15,12.0,17.0,79,0.00,,,0.00,,2013-03-11 07:12:00,
2013-03-11 02:22:00,17.0,12.0,-100.00,NNE,30,12.0,18.0,79,0.00,,,0.00,,2013-03-11 07:22:00,
2013-03-11 02:32:00,17.0,12.0,-100.00,NNE,25,11.0,16.0,79,0.00,,,0.00,,2013-03-11 07:32:00,
2013-03-11 02:42:00,17.0,12.0,-100.00,NNE,15,11.0,15.0,79,0.00,,,0.00,,2013-03-11 07:42:00,
2013-03-11 02:52:00,17.0,12.0,-100.00,North,10,11.0,14.0,79,0.00,,,0.00,,2013-03-11 07:52:00,
2013-03-11 03:02:00,17.0,10.0,-100.00,NNE,15,11.0,15.0,79,0.00,,,0.00,,2013-03-11 08:02:00,
2013-03-11 03:12:00,17.0,12.0,-100.00,North,10,11.0,16.0,79,0.00,,,0.00,,2013-03-11 08:12:00,
2013-03-11 03:22:00,17.0,10.0,-100.00,NNE,20,9.0,14.0,79,0.00,,,0.00,,2013-03-11 08:22:00,
2013-03-11 03:32:00,16.0,10.0,-100.00,North,10,10.0,12.0,79,0.00,,,0.00,,2013-03-11 08:32:00,
2013-03-11 03:42:00,16.0,10.0,-100.00,NNE,15,7.0,11.0,79,0.00,,,0.00,,2013-03-11 08:42:00,
2013-03-11 03:52:00,15.0,10.0,-100.00,NNE,20,8.0,12.0,79,0.00,,,0.00,,2013-03-11 08:52:00,
2013-03-11 04:02:00,15.0,10.0,-100.00,NNE,30,6.0,10.0,79,0.00,,,0.00,,2013-03-11 09:02:00,
2013-03-11 04:12:00,14.0,9.0,-100.00,North,5,7.0,11.0,80,0.00,,,0.00,,2013-03-11 09:12:00,
2013-03-11 04:22:00,14.0,9.0,-100.00,North,5,7.0,9.0,80,0.00,,,0.00,,2013-03-11 09:22:00,
2013-03-11 04:32:00,14.0,9.0,-100.00,North,5,7.0,11.0,80,0.00,,,0.00,,2013-03-11 09:32:00,
2013-03-11 04:42:00,13.0,9.0,-100.00,North,350,6.0,10.0,80,0.00,,,0.00,,2013-03-11 09:42:00,
2013-03-11 04:52:00,12.0,7.0,-100.00,NNW,345,9.0,11.0,80,0.00,,,0.00,,2013-03-11 09:52:00,
2013-03-11 05:02:00,11.0,7.0,-100.00,North,0,6.0,10.0,80,0.00,,,0.00,,2013-03-11 10:02:00,
2013-03-11 05:12:00,11.0,7.0,-100.00,North,0,6.0,8.0,81,0.00,,,0.00,,2013-03-11 10:12:00,
2013-03-11 05:22:00,11.0,7.0,-100.00,North,0,6.0,9.0,81,0.00,,,0.00,,2013-03-11 10:22:00,
2013-03-11 05:32:00,11.0,7.0,-100.00,NNW,345,6.0,9.0,81,0.00,,,0.00,,2013-03-11 10:32:00,
2013-03-11 05:42:00,10.0,7.0,-100.00,NNW,345,7.0,9.0,82,0.00,,,0.00,,2013-03-11 10:42:00,
2013-03-11 05:52:00,10.0,5.0,-100.00,NNW,335,6.0,9.0,82,0.00,,,0.00,,2013-03-11 10:52:00,
2013-03-11 06:02:00,9.0,5.0,-100.00,NNW,335,6.0,7.0,83,0.00,,,0.00,,2013-03-11 11:02:00,
2013-03-11 06:12:00,9.0,5.0,-100.00,North,0,4.0,7.0,83,0.00,,,0.00,,2013-03-11 11:12:00,
2013-03-11 06:22:00,9.0,5.0,-100.00,North,355,6.0,7.0,84,0.00,,,0.00,,2013-03-11 11:22:00,
2013-03-11 06:32:00,9.0,5.0,-100.00,North,10,4.0,7.0,84,0.00,,,0.00,,2013-03-11 11:32:00,
2013-03-11 06:42:00,9.0,5.0,-100.00,North,0,7.0,9.0,84,0.00,,,0.00,,2013-03-11 11:42:00,
2013-03-11 06:52:00,9.0,5.0,-100.00,North,0,7.0,8.0,85,0.00,,,0.00,,2013-03-11 11:52:00,
2013-03-11 07:02:00,8.0,5.0,-100.00,North,0,6.0,9.0,85,0.00,,,0.00,,2013-03-11 12:02:00,
2013-03-11 07:12:00,9.0,5.0,-100.00,North,0,5.0,9.0,85,0.00,,,0.00,,2013-03-11 12:12:00,
2013-03-11 07:22:00,8.0,5.0,-100.00,North,0,6.0,7.0,85,0.00,,,0.00,,2013-03-11 12:22:00,
2013-03-11 07:32:00,8.0,5.0,-100.00,North,0,6.0,9.0,85,0.00,,,0.00,,2013-03-11 12:32:00,
2013-03-11 07:42:00,8.0,5.0,-100.00,North,0,6.0,9.0,85,0.00,,,0.00,,2013-03-11 12:42:00,
2013-03-11 07:52:00,7.0,3.0,-100.00,North,5,4.0,7.0,85,0.00,,,0.00,,2013-03-11 12:52:00,
2013-03-11 08:02:00,8.0,5.0,-100.00,North,355,6.0,8.0,86,0.00,,,0.00,,2013-03-11 13:02:00,
2013-03-11 08:12:00,7.0,3.0,-100.00,North,0,4.0,7.0,86,0.00,,,0.00,,2013-03-11 13:12:00,
2013-03-11 08:22:00,7.0,3.0,-100.00,NNE,15,5.0,6.0,86,0.00,,,0.00,,2013-03-11 13:22:00,
2013-03-11 08:32:00,9.0,5.0,-100.00,North,0,4.0,7.0,86,0.00,,,0.00,,2013-03-11 13:32:00,
2013-03-11 08:42:00,10.0,7.0,-100.00,NE,35,3.0,6.0,86,0.00,,,0.00,,2013-03-11 13:42:00,
2013-03-11 08:52:00,11.0,7.0,-100.00,North,5,6.0,7.0,86,0.00,,,0.00,,2013-03-11 13:52:00,
2013-03-11 09:02:00,11.0,9.0,-100.00,North,0,6.0,7.0,85,0.00,,,0.00,,2013-03-11 14:02:00,
2013-03-11 09:12:00,11.0,7.0,-100.00,NNE,15,5.0,7.0,84,0.00,,,0.00,,2013-03-11 14:12:00,
2013-03-11 09:22:00,13.0,9.0,-100.00,North,0,4.0,7.0,82,0.00,,,0.00,,2013-03-11 14:22:00,
2013-03-11 09:32:00,13.0,9.0,-100.00,North,0,4.0,6.0,81,0.00,,,0.00,,2013-03-11 14:32:00,
2013-03-11 09:42:00,15.0,9.0,-100.00,NNW,335,3.0,4.0,79,0.00,,,0.00,,2013-03-11 14:42:00,
2013-03-11 09:52:00,16.0,9.0,-100.00,NNW,335,2.0,4.0,76,0.00,,,0.00,,2013-03-11 14:52:00,
2013-03-11 10:02:00,18.0,10.0,-100.00,NNW,345,1.0,3.0,73,0.00,,,0.00,,2013-03-11 15:02:00,
2013-03-11 10:12:00,20.0,12.0,-100.00,North,10,2.0,4.0,71,0.00,,,0.00,,2013-03-11 15:12:00,
2013-03-11 10:22:00,20.0,10.0,-100.00,NNW,340,3.0,4.0,68,0.00,,,0.00,,2013-03-11 15:22:00,
2013-03-11 10:32:00,19.0,10.0,-100.00,NNW,345,4.0,6.0,67,0.00,,,0.00,,2013-03-11 15:32:00,
2013-03-11 10:42:00,19.0,10.0,-100.00,NNW,330,4.0,6.0,67,0.00,,,0.00,,2013-03-11 15:42:00,
2013-03-11 10:52:00,20.0,10.0,-100.00,NNW,345,4.0,6.0,68,0.00,,,0.00,,2013-03-11 15:52:00,
2013-03-11 11:02:00,20.0,10.0,-100.00,NNW,345,4.0,6.0,68,0.00,,,0.00,,2013-03-11 16:02:00,
2013-03-11 11:12:00,21.0,12.0,-100.00,NNW,335,4.0,6.0,68,0.00,,,0.00,,2013-03-11 16:12:00,
2013-03-11 11:22:00,20.0,12.0,-100.00,NNW,340,6.0,8.0,68,0.00,,,0.00,,2013-03-11 16:22:00,
2013-03-11 11:32:00,21.0,12.0,-100.00,NNW,345,6.0,8.0,69,0.00,,,0.00,,2013-03-11 16:32:00,
2013-03-11 11:42:00,21.0,12.0,-100.00,North,0,6.0,8.0,69,0.00,,,0.00,,2013-03-11 16:42:00,
2013-03-11 11:52:00,21.0,12.0,-100.00,North,0,6.0,9.0,69,0.00,,,0.00,,2013-03-11 16:52:00,
2013-03-11 12:02:00,21.0,12.0,-100.00,NNW,335,6.0,11.0,69,0.00,,,0.00,,2013-03-11 17:02:00,
2013-03-11 12:14:00,21.0,12.0,-100.00,North,0,9.0,12.0,68,0.00,,,0.00,,2013-03-11 17:14:00,
2013-03-11 12:24:00,22.0,12.0,-100.00,North,0,10.0,14.0,68,0.00,,,0.00,,2013-03-11 17:24:00,
2013-03-11 12:34:00,22.0,12.0,-100.00,North,0,8.0,11.0,68,0.00,,,0.00,,2013-03-11 17:34:00,
2013-03-11 12:42:00,22.0,12.0,-100.00,North,0,9.0,11.0,68,0.00,,,0.00,,2013-03-11 17:42:00,
2013-03-11 12:52:00,22.0,14.0,-100.00,North,0,8.0,12.0,67,0.00,,,0.00,,2013-03-11 17:52:00,
2013-03-11 13:02:00,22.0,14.0,-100.00,North,0,8.0,11.0,67,0.00,,,0.00,,2013-03-11 18:02:00,
2013-03-11 13:12:00,22.0,14.0,-100.00,North,10,7.0,11.0,67,0.00,,,0.00,,2013-03-11 18:12:00,
2013-03-11 13:22:00,23.0,14.0,-100.00,North,0,6.0,12.0,66,0.00,,,0.00,,2013-03-11 18:22:00,
2013-03-11 13:32:00,23.0,14.0,-100.00,North,0,7.0,10.0,66,0.00,,,0.00,,2013-03-11 18:32:00,
2013-03-11 13:42:00,24.0,14.0,-100.00,NNW,340,7.0,9.0,65,0.00,,,0.00,,2013-03-11 18:42:00,
2013-03-11 13:52:00,23.0,14.0,-100.00,NNW,330,7.0,10.0,65,0.00,,,0.00,,2013-03-11 18:52:00,
2013-03-11 14:02:00,23.0,14.0,-100.00,NNW,330,7.0,12.0,67,0.00,,,0.00,,2013-03-11 19:02:00,
2013-03-11 14:12:00,23.0,14.0,-100.00,NNW,330,8.0,13.0,67,0.00,,,0.00,,2013-03-11 19:12:00,
2013-03-11 14:22:00,24.0,14.0,-100.00,NNW,335,6.0,10.0,66,0.00,,,0.00,,2013-03-11 19:22:00,
2013-03-11 14:32:00,24.0,14.0,-100.00,North,0,9.0,11.0,66,0.00,,,0.00,,2013-03-11 19:32:00,
2013-03-11 14:42:00,23.0,14.0,-100.00,NNW,335,10.0,12.0,67,0.00,,,0.00,,2013-03-11 19:42:00,
2013-03-11 14:52:00,23.0,14.0,-100.00,NNW,340,9.0,13.0,67,0.00,,,0.00,,2013-03-11 19:52:00,
2013-03-11 15:02:00,23.0,14.0,-100.00,NNW,335,11.0,14.0,67,0.00,,,0.00,,2013-03-11 20:02:00,
2013-03-11 15:12:00,23.0,14.0,-100.00,North,350,10.0,15.0,67,0.00,,,0.00,,2013-03-11 20:12:00,
2013-03-11 15:22:00,22.0,14.0,-100.00,NW,305,11.0,15.0,72,0.00,,,0.00,,2013-03-11 20:22:00,
2013-03-11 15:32:00,22.0,14.0,-100.00,NW,325,11.0,16.0,71,0.00,,,0.00,,2013-03-11 20:32:00,
2013-03-11 15:43:00,23.0,14.0,-100.00,NW,320,11.0,16.0,70,0.00,,,0.00,,2013-03-11 20:43:00,
2013-03-11 15:52:00,23.0,14.0,-100.00,NW,305,11.0,16.0,70,0.00,,,0.00,,2013-03-11 20:52:00,
2013-03-11 16:02:00,23.0,14.0,-100.00,NW,320,12.0,16.0,68,0.00,,,0.00,,2013-03-11 21:02:00,
2013-03-11 16:12:00,23.0,14.0,-100.00,NW,320,13.0,16.0,68,0.00,,,0.00,,2013-03-11 21:12:00,
2013-03-11 16:22:00,23.0,14.0,-100.00,NNW,335,9.0,16.0,68,0.00,,,0.00,,2013-03-11 21:22:00,
2013-03-11 16:32:00,24.0,16.0,-100.00,NW,320,11.0,14.0,69,0.00,,,0.00,,2013-03-11 21:32:00,
2013-03-11 16:43:00,24.0,16.0,-100.00,NW,325,8.0,12.0,69,0.00,,,0.00,,2013-03-11 21:43:00,
2013-03-11 16:52:00,24.0,16.0,-100.00,NW,315,9.0,13.0,69,0.00,,,0.00,,2013-03-11 21:52:00,
2013-03-11 17:02:00,22.0,14.0,-100.00,NW,320,11.0,13.0,70,0.00,,,0.00,,2013-03-11 22:02:00,
2013-03-11 17:12:00,22.0,14.0,-100.00,WNW,300,10.0,12.0,70,0.00,,,0.00,,2013-03-11 22:12:00,
2013-03-11 17:22:00,22.0,14.0,-100.00,NNW,330,10.0,15.0,70,0.00,,,0.00,,2013-03-11 22:22:00,
2013-03-11 17:32:00,22.0,14.0,-100.00,NW,315,7.0,12.0,70,0.00,,,0.00,,2013-03-11 22:32:00,
2013-03-11 17:43:00,22.0,14.0,-100.00,NW,320,9.0,11.0,70,0.00,,,0.00,,2013-03-11 22:43:00,
2013-03-11 17:52:00,22.0,14.0,-100.00,NW,315,11.0,16.0,70,0.00,,,0.00,,2013-03-11 22:52:00,
2013-03-11 18:03:00,22.0,14.0,-100.00,NW,315,9.0,14.0,70,0.00,,,0.00,,2013-03-11 23:03:00,
2013-03-11 18:12:00,22.0,14.0,-100.00,NW,315,10.0,13.0,70,0.00,,,0.00,,2013-03-11 23:12:00,
2013-03-11 18:22:00,22.0,14.0,-100.00,NW,315,11.0,14.0,68,0.00,,,0.00,,2013-03-11 23:22:00,
2013-03-11 18:32:00,22.0,12.0,-100.00,NW,315,14.0,17.0,67,0.00,,,0.00,,2013-03-11 23:32:00,
2013-03-11 18:43:00,21.0,12.0,-100.00,NW,320,14.0,17.0,68,0.00,,,0.00,,2013-03-11 23:43:00,
2013-03-11 18:52:00,21.0,12.0,-100.00,NW,320,11.0,16.0,69,0.00,,,0.00,,2013-03-11 23:52:00,
2013-03-11 19:02:00,20.0,12.0,-100.00,NW,310,11.0,15.0,69,0.00,,,0.00,,2013-03-12 00:02:00,
2013-03-11 19:12:00,20.0,10.0,-100.00,NW,320,13.0,15.0,67,0.00,,,0.00,,2013-03-12 00:12:00,
2013-03-11 19:22:00,20.0,10.0,-100.00,NW,315,12.0,16.0,65,0.00,,,0.00,,2013-03-12 00:22:00,
2013-03-11 19:33:00,20.0,10.0,-100.00,NW,320,11.0,15.0,65,0.00,,,0.00,,2013-03-12 00:33:00,
2013-03-11 19:42:00,19.0,10.0,-100.00,NW,315,10.0,15.0,65,0.00,,,0.00,,2013-03-12 00:42:00,
2013-03-11 19:53:00,19.0,10.0,-100.00,NW,320,9.0,14.0,65,0.00,,,0.00,,2013-03-12 00:53:00,
2013-03-11 20:02:00,19.0,10.0,-100.00,NW,320,9.0,13.0,66,0.00,,,0.00,,2013-03-12 01:02:00,
2013-03-11 20:12:00,19.0,10.0,-100.00,NW,320,10.0,12.0,66,0.00,,,0.00,,2013-03-12 01:12:00,
2013-03-11 20:22:00,19.0,10.0,-100.00,NW,315,11.0,13.0,67,0.00,,,0.00,,2013-03-12 01:22:00,
2013-03-11 20:32:00,19.0,10.0,-100.00,NW,310,11.0,14.0,67,0.00,,,0.00,,2013-03-12 01:32:00,
2013-03-11 20:42:00,19.0,10.0,-100.00,NW,315,10.0,12.0,67,0.00,,,0.00,,2013-03-12 01:42:00,
2013-03-11 20:52:00,19.0,10.0,-100.00,NW,310,9.0,12.0,67,0.00,,,0.00,,2013-03-12 01:52:00,
2013-03-11 21:02:00,19.0,10.0,-100.00,NW,320,7.0,12.0,68,0.00,,,0.00,,2013-03-12 02:02:00,
2013-03-11 21:12:00,19.0,10.0,-100.00,WNW,300,7.0,11.0,68,0.00,,,0.00,,2013-03-12 02:12:00,
2013-03-11 21:22:00,19.0,10.0,-100.00,NW,305,7.0,12.0,70,0.00,,,0.00,,2013-03-12 02:22:00,
2013-03-11 21:32:00,18.0,10.0,-100.00,WNW,300,9.0,12.0,71,0.00,,,0.00,,2013-03-12 02:32:00,
2013-03-11 21:42:00,18.0,10.0,-100.00,WNW,295,7.0,11.0,72,0.00,,,0.00,,2013-03-12 02:42:00,
2013-03-11 21:52:00,19.0,12.0,-100.00,NW,305,6.0,10.0,73,0.00,,,0.00,,2013-03-12 02:52:00,
2013-03-11 22:02:00,19.0,12.0,-100.00,NW,305,6.0,7.0,73,0.00,,,0.00,,2013-03-12 03:02:00,
2013-03-11 22:12:00,19.0,12.0,-100.00,NW,310,6.0,8.0,72,0.00,,,0.00,,2013-03-12 03:12:00,
2013-03-11 22:22:00,18.0,10.0,-100.00,WNW,290,6.0,9.0,73,0.00,,,0.00,,2013-03-12 03:22:00,
2013-03-11 22:32:00,18.0,10.0,-100.00,WNW,300,7.0,9.0,73,0.00,,,0.00,,2013-03-12 03:32:00,
2013-03-11 22:42:00,18.0,10.0,-100.00,WNW,295,6.0,9.0,72,0.00,,,0.00,,2013-03-12 03:42:00,
2013-03-11 22:52:00,18.0,10.0,-100.00,WNW,295,5.0,9.0,72,0.00,,,0.00,,2013-03-12 03:52:00,
2013-03-11 23:02:00,18.0,12.0,-100.00,WNW,300,4.0,7.0,73,0.00,,,0.00,,2013-03-12 04:02:00,
2013-03-11 23:12:00,18.0,12.0,-100.00,WNW,295,5.0,7.0,73,0.00,,,0.00,,2013-03-12 04:12:00,
2013-03-11 23:22:00,19.0,12.0,-100.00,WNW,295,6.0,7.0,74,0.00,,,0.00,,2013-03-12 04:22:00,
2013-03-11 23:32:00,19.0,12.0,-100.00,NW,310,5.0,6.0,74,0.00,,,0.00,,2013-03-12 04:32:00,
2013-03-11 23:42:00,19.0,12.0,-100.00,WNW,295,4.0,7.0,75,0.00,,,0.00,,2013-03-12 04:42:00,
2013-03-11 23:52:00,19.0,12.0,-100.00,NW,310,4.0,8.0,75,0.00,,,0.00,,2013-03-12 04:52:00,